LKMT Weather Reports


Display with metric or nautical units.
time (UTC)temp
F
wind
direction
speed
MPH
gust
MPH
rain 1hr
in
rain 24hr
in
rain mn
in
humidity
%
barometer
mb
20260507043224 59 240 13.0 0.0 0.00 0.00 0.00 72 1008.0
20260507042358 59 250 9.0 0.0 0.00 0.00 0.00 72
20260507040232 59 250 8.0 0.0 0.00 0.00 0.00 72 1008.0
20260507033224 61 210 15.0 0.0 0.00 0.00 0.00 67 1007.0
20260507032155 61 210 16.0 0.0 0.00 0.00 0.00 67
20260507030239 61 220 13.0 0.0 0.00 0.00 0.00 67 1007.0
20260507023223 63 220 13.0 0.0 0.00 0.00 0.00 63 1006.0
20260507022154 63 220 14.0 0.0 0.00 0.00 0.00 63
20260507020239 61 220 13.0 0.0 0.00 0.00 0.00 67 1007.0
20260507013224 63 190 15.0 0.0 0.00 0.00 0.00 63 1006.0
20260507012255 63 190 16.0 0.0 0.00 0.00 0.00 63
20260507010240 63 190 15.0 0.0 0.00 0.00 0.00 63 1006.0
20260507003223 63 190 12.0 0.0 0.00 0.00 0.00 63 1006.0
20260507002156 63 230 9.0 0.0 0.00 0.00 0.00 63
20260507000234 61 230 9.0 0.0 0.00 0.00 0.00 67 1006.0
20260506233224 64 190 10.0 0.0 0.00 0.00 0.00 59 1006.0
20260506232156 64 190 12.0 0.0 0.00 0.00 0.00 55
20260506230239 64 190 12.0 0.0 0.00 0.00 0.00 59 1006.0
20260506223223 64 190 10.0 0.0 0.00 0.00 0.00 59 1006.0
20260506222427 66 190 16.0 0.0 0.00 0.00 0.00 55
20260506220245 66 190 15.0 0.0 0.00 0.00 0.00 55 1006.0
20260506213231 66 190 15.0 0.0 0.00 0.00 0.00 55 1006.0
20260506212211 68 190 14.0 0.0 0.00 0.00 0.00 49
20260506210233 66 190 13.0 0.0 0.00 0.00 0.00 52 1006.0
20260506203222 68 190 14.0 0.0 0.00 0.00 0.00 49 1006.0
20260506202228 68 190 14.0 0.0 0.00 0.00 0.00 45
20260506200239 68 190 13.0 0.0 0.00 0.00 0.00 49 1006.0
20260506193232 70 190 15.0 0.0 0.00 0.00 0.00 46 1006.0
20260506192404 70 190 12.0 0.0 0.00 0.00 0.00 46
20260506190253 70 190 10.0 0.0 0.00 0.00 0.00 46 1005.0
20260506183245 70 190 10.0 0.0 0.00 0.00 0.00 46 1005.0
20260506182301 72 180 9.0 0.0 0.00 0.00 0.00 40
20260506180247 72 180 9.0 0.0 0.00 0.00 0.00 43 1005.0
20260506173238 72 180 10.0 0.0 0.00 0.00 0.00 43 1005.0
20260506172226 72 190 14.0 0.0 0.00 0.00 0.00 40
20260506170233 72 190 13.0 0.0 0.00 0.00 0.00 43 1005.0
20260506163238 73 190 12.0 0.0 0.00 0.00 0.00 43 1006.0
20260506162428 73 190 14.0 0.0 0.00 0.00 0.00 40
20260506160247 73 190 13.0 25.0 0.00 0.00 0.00 40 1006.0
20260506153238 73 190 15.0 0.0 0.00 0.00 0.00 40 1006.0
20260506152244 73 200 14.0 0.0 0.00 0.00 0.00 40
20260506150246 73 190 13.0 0.0 0.00 0.00 0.00 43 1006.0
20260506143238 75 210 15.0 0.0 0.00 0.00 0.00 41 1007.0
20260506142211 73 210 12.0 0.0 0.00 0.00 0.00 40
20260506140239 73 210 10.0 0.0 0.00 0.00 0.00 43 1007.0
20260506133238 75 220 15.0 0.0 0.00 0.00 0.00 41 1007.0
20260506132211 73 220 12.0 0.0 0.00 0.00 0.00 40
20260506130234 73 220 10.0 0.0 0.00 0.00 0.00 46 1007.0
20260506123230 73 200 12.0 0.0 0.00 0.00 0.00 40 1007.0
20260506122210 75 220 14.0 0.0 0.00 0.00 0.00 36
20260506120239 75 220 15.0 0.0 0.00 0.00 0.00 41 1007.0
20260506113230 73 230 17.0 0.0 0.00 0.00 0.00 43 1007.0
20260506112157 73 240 16.0 0.0 0.00 0.00 0.00 43
20260506110233 73 230 15.0 0.0 0.00 0.00 0.00 43 1007.0
20260506103230 72 230 18.0 0.0 0.00 0.00 0.00 46 1008.0
20260506102359 72 230 18.0 0.0 0.00 0.00 0.00 46
20260506100236 72 230 17.0 0.0 0.00 0.00 0.00 49 1008.0
20260506093231 70 250 17.0 0.0 0.00 0.00 0.00 49 1008.0
20260506092141 70 230 20.0 0.0 0.00 0.00 0.00 49
20260506090234 70 230 18.0 0.0 0.00 0.00 0.00 52 1008.0
20260506083230 68 200 18.0 0.0 0.00 0.00 0.00 56 1007.0
20260506082157 66 220 20.0 0.0 0.00 0.00 0.00 55
20260506080241 66 220 20.0 0.0 0.00 0.00 0.00 55 1007.0
20260506073230 66 210 18.0 0.0 0.00 0.00 0.00 55 1007.0
20260506072158 64 210 16.0 26.0 0.00 0.00 0.00 59
20260506070240 64 210 15.0 0.0 0.00 0.00 0.00 59 1007.0
20260506062230 63 220 14.0 0.0 0.00 0.00 0.00 59
20260506060234 63 220 13.0 0.0 0.00 0.00 0.00 59 1007.0
20260506050239 59 230 10.0 0.0 0.00 0.00 0.00 67 1007.0